Regional Weather Roundup
Issued by NWS

Home | Current Version | Previous Version | Graphics & Text | Print | Product List | Glossary Off
Versions: 1 2 3 4 5 6 7 8 9 10 11 12 13 14 15 16 17 18 19 20 21 22 23 24 25 26 27 28 29 30 31 32 33 34 35 36 37 38 39 40 41 42 43 44 45 46 47 48 49 50

000
ASUS43 KTOP 251159
RWRKS

WEATHER ROUNDUP FOR KANSAS
NATIONAL WEATHER SERVICE GOODLAND KS
700 AM CDT WED MAY 25 2016

NOTE:  "FAIR" INDICATES FEW OR NO CLOUDS BELOW 12,000 FEET WITH NO
SIGNIFICANT WEATHER AND/OR OBSTRUCTIONS TO VISIBILITY.

KSZ001>006-013>018-027>032-041>047-251300-
NORTHWEST KANSAS

CITY           SKY/WX    TMP DP  RH WIND       PRES   REMARKS
GOODLAND       CLOUDY    56  55  97 NE14G23   29.91R FOG
6HR MIN TEMP:  54; 6HR MAX TEMP:  59;

HILL CITY      CLOUDY    61  55  81 NE13      29.85F
6HR MIN TEMP:  61; 6HR MAX TEMP:  63;

RUSSELL        CLOUDY    63  60  90 SE12G23   29.79F
6HR MIN TEMP:  60; 6HR MAX TEMP:  63;

$$

KSZ061>065-074>080-084>089-251300-
SOUTHWEST KANSAS

CITY           SKY/WX    TMP DP  RH WIND       PRES   REMARKS
DODGE CITY     PTCLDY    65  65 100 S10       29.80R FOG
6HR MIN TEMP:  64; 6HR MAX TEMP:  71;

ELKHART          N/A     56  33  42 W12         N/A
GARDEN CITY    FOG       53  53 100 SW7       29.80R VSB 1/4
6HR MIN TEMP:  53; 6HR MAX TEMP:  68;

GREAT BEND     CLOUDY    64  55  72 SE18      29.80R
LIBERAL        CLEAR     54  46  76 W10       29.84R
$$

KSZ066>073-081>083-090>101-251300-
SOUTHEAST KANSAS

CITY           SKY/WX    TMP DP  RH WIND       PRES   REMARKS
CHANUTE        CLOUDY    65  60  84 SE9       29.89S
6HR MIN TEMP:  64; 6HR MAX TEMP:  72; 6HR PCP:  0.17;

COFFEYVILLE    LGT RAIN  65  63  93 SE7       29.98R
6HR MIN TEMP:  63; 6HR MAX TEMP:  76; 6HR PCP:  0.81;

HUTCHINSON     CLOUDY    66  61  84 SE17G24   29.80S
6HR MIN TEMP:  62; 6HR MAX TEMP:  67; 6HR PCP:  0.13;

MEDICINE LODGE   N/A     66  63  90 SE13      29.80S
NEWTON         CLOUDY    64  57  77 SE24      29.84F
PARSONS        CLOUDY    65  63  93 SE13      29.93F
6HR MIN TEMP:  64; 6HR MAX TEMP:  73; 6HR PCP:  0.16;

WICHITA INTL   CLOUDY    67  62  84 SE18      29.82F
6HR MIN TEMP:  62; 6HR MAX TEMP:  68; 6HR PCP:  1.22;

WICHITA JABRA  CLOUDY    66  62  87 SE18G28   29.83S
6HR MIN TEMP:  61; 6HR MAX TEMP:  66; 6HR PCP:  0.91;

WICHITA MCCONL CLOUDY    66  61  82 S17G25    29.84S
WINFIELD       CLOUDY    66  64  93 SE16G24   29.88R
6HR MIN TEMP:  63; 6HR MAX TEMP:  72; 6HR PCP:  0.67;

$$

KSZ007>012-019>026-033>040-048>060-102>105-251300-
NORTHEAST KANSAS

CITY           SKY/WX    TMP DP  RH WIND       PRES   REMARKS
CONCORDIA      MOCLDY    60  57  89 NE7       29.84F
6HR MIN TEMP:  59; 6HR MAX TEMP:  64; 6HR PCP:  0.07;

EMPORIA        CLOUDY    66  57  72 S16       29.83R
6HR MIN TEMP:  62; 6HR MAX TEMP:  66; 6HR PCP:  0.25;

LAWRENCE       CLOUDY    69  55  60 S5        29.81R
                                      6HR PCP:  0.28;

MANHATTAN      CLOUDY    64  59  83 VRB7      29.86R
6HR MIN TEMP:  60; 6HR MAX TEMP:  77;

OLATHE IND     CLOUDY    69  54  58 S9        29.81R
6HR MIN TEMP:  63; 6HR MAX TEMP:  70; 6HR PCP:  0.20;

OLATHE EXE     CLOUDY    70  53  54 S12       29.80F
6HR MIN TEMP:  62; 6HR MAX TEMP:  71; 6HR PCP:  0.21;

SALINA         CLOUDY    65  61  87 N16       29.85R
6HR MIN TEMP:  63; 6HR MAX TEMP:  66;

TOPEKA BILLARD CLOUDY    67  56  67 VRB3      29.83R
6HR MIN TEMP:  63; 6HR MAX TEMP:  71; 6HR PCP:  0.48;

TOPEKA FORBES  CLOUDY    67  57  70 SW7       29.83R
6HR MIN TEMP:  63; 6HR MAX TEMP:  71; 6HR PCP:  0.46;

$$




USA.gov is the U.S. government's official web portal to all federal, state and local government web resources and services.